Погода в Елецком

Россия / Липецкая область     52°37′56″N   38°34′16″E
темп.,
°C
ветер,
м/с
пор.,
м/с
влажн.,
%
обл.,
%
осадки,
мм/ч
давл.,
гПа
погр.,
м
18 мая, вт
вт1800:00+18юв413777 0.0 1008281
03:00+15вюв48781 0.0 1008131
06:00+15вюв3107672 0.0 1007198
09:00+20вюв612577 0.0 1007421
12:00+24вюв7114834 0.0 1006894
15:00+25вюв7125497 0.0 10051495
18:00+23юв713615 0.0 1004683
21:00+17юз59916 0.0 1006323
19 мая, ср
ср1900:00+15ю379287 0.1 1006349
03:00+15ююв5109196 0.2 1007421
06:00+14ююв499542 0.0 1008354
09:00+18ююв567583 0.0 1008875
12:00+20юв676181 0.1 10071492
15:00+20ююв5764100 0.8 10071054
18:00+18юв5107796 1.3 1006830
21:00+14в1195100 2.2 100613
20 мая, чт
чт2000:00+12юв8139086 0.1 1006753
03:00+11ююв81390100 0.1 1005698
06:00+11юв61095100 0.0 1006546
09:00+12ююв71393100 1.3 1006827
12:00+13ю61192100 0.5 1008804
15:00+14ю6989100 1.3 1008632
18:00+15ююз6986100 0.6 1009708
21:00+13юз379468 0.8 1010309
21 мая, пт
пт2100:00+11юз489794 0.1 1011320
03:00+12зюз4895100 0.1 1011475
06:00+10з47949 0.1 1013343
09:00+13з4576100 0.1 1014700
12:00+16з4564100 0.0 10151305
15:00+15сз3367100 0.1 1015876
18:00+15с3376100 0.1 1016423
21:00+13ссв2280100 0.1 101820
22 мая, сб
сб2200:00+12всв3382100 0.0 101738
03:00+12всв3382100 0.0 101868
06:00+11всв4994100 1.6 1017276
09:00+11св4996100 5.7 1018341
12:00+13св6990100 0.1 1018386
15:00+13св71393100 0.8 1017474
18:00+14св71389100 0.0 1016433
21:00+12св61293100 0.0 1015349